sat.trackr.live / text

‹ back to catalog

STARLINK-37263

NORAD 68544 · 2026-070C

PAYLOAD ACTIVE UNKNOWN

§ Identity

Operator
Country
US
Launch date
2026-04-02
Launch site
AFETR
Launch vehicle
Mass (kg)
RCS (m²)

Purposes: comms

External: N2YO · Heavens-Above · Gunter

§ Orbital elements

Epoch: 2026-09-20T04:04:21.594432Z

Period
93.85 min
Inclination
53.1586°
Eccentricity
0.0000921
Mean motion
15.34402376 rev/d
Perigee alt
462.1 km
Apogee alt
463.3 km
Semi-major
6,840.8 km
B*
4.5189e-4
RAAN
175.4858°
Arg perigee
62.9832°
Mean anomaly
297.1265°
Rev number
2,638

§ Raw data

STARLINK-372631 68544U 26070C   26263.16969438  .00014923  00000+0  45189-3 0  99952 68544  53.1586 175.4858 0000921  62.9832 297.1265 15.34402376 26383

JSON: /api/v1/satellites/68544 · /tle

For live sub-satellite position, see the globe view (requires WebGL).

§ Visibility from observer

Set your observer location to see the next 7 days of passes ≥ 10°. The values pass through the URL so the page stays shareable.

No JS? Fill the form by hand. The geolocation button needs JavaScript.